カタログに戻る

STARLINK-31484

運用中通信VLEO
NORAD 59005·PAYLOAD·🇺🇸 United States

打ち上げ Feb 23, 2024 から Vandenberg Space Force Base

Loading…

次のパス (今後24時間)

TLE

最新Source: CelesTrak SupGP

元期: Sep 15, 2026, 01:42 UTC

1 59005C 24036H   26258.07131944  .00018198  00000+0  53741-3 0  2583
2 59005  53.1573 276.8642 0001316  82.4841 185.3666 15.34396783    13

AllMySatでSTARLINK-31484をリアルタイム追跡

Download on the App Store